EN

Hourly Weather Luh

Today, 18 May, Tuesday

Time Temperature Precipitation Wind Pressure Humidity
00:00 +12°C° 0.2 mm 1 mps 727 mmHg 88%
01:00 +12°C° 0.2 mm 1 mps 727 mmHg 89%
02:00 +12°C° 0.2 mm 1 mps 727 mmHg 91%
03:00 +12°C° 0.6 mm 1 mps 727 mmHg 93%
04:00 +12°C° 0.6 mm 2 mps 727 mmHg 94%
05:00 +12°C° 0.6 mm 2 mps 727 mmHg 96%
06:00 +11°C° 1.4 mm 3 mps 727 mmHg 96%
07:00 +11°C° 1.4 mm 3 mps 727 mmHg 96%
08:00 +11°C° 1.4 mm 4 mps 727 mmHg 96%
09:00 +11°C° 2.1 mm 4 mps 727 mmHg 95%
10:00 +11°C° 2.1 mm 4 mps 728 mmHg 95%
11:00 +10°C° 2.1 mm 5 mps 728 mmHg 95%
12:00 +10°C° 0.6 mm 5 mps 728 mmHg 94%
13:00 +10°C° 0.6 mm 6 mps 728 mmHg 93%
14:00 +10°C° 0.6 mm 7 mps 729 mmHg 93%
15:00 +10°C° 0.1 mm 7 mps 729 mmHg 92%
16:00 +10°C° 0.1 mm 7 mps 729 mmHg 91%
17:00 +10°C° 0.1 mm 7 mps 729 mmHg 91%
18:00 +10°C° 0.1 mm 7 mps 730 mmHg 90%
19:00 +10°C° 0.1 mm 7 mps 730 mmHg 89%
20:00 +10°C° 0.1 mm 6 mps 730 mmHg 88%
21:00 +10°C° 0.1 mm 6 mps 730 mmHg 87%
22:00 +10°C° 0.1 mm 6 mps 731 mmHg 85%
23:00 +10°C° 0.1 mm 6 mps 731 mmHg 84%

Tomorrow, 19 May, Wednesday

Time Temperature Precipitation Wind Pressure Humidity
00:00 +10°C° 0 mm 6 mps 731 mmHg 85%
01:00 +9°C° 0 mm 6 mps 731 mmHg 86%
02:00 +9°C° 0 mm 6 mps 731 mmHg 86%
03:00 +9°C° 0 mm 6 mps 732 mmHg 86%
04:00 +9°C° 0 mm 6 mps 732 mmHg 85%
05:00 +9°C° 0 mm 6 mps 732 mmHg 85%
06:00 +10°C° 0 mm 6 mps 733 mmHg 83%
07:00 +10°C° 0 mm 6 mps 733 mmHg 81%
08:00 +11°C° 0 mm 6 mps 733 mmHg 79%
09:00 +11°C° 0 mm 6 mps 733 mmHg 76%
10:00 +13°C° 0 mm 6 mps 734 mmHg 72%
11:00 +14°C° 0 mm 5 mps 734 mmHg 68%
12:00 +14°C° 0 mm 5 mps 734 mmHg 66%
13:00 +15°C° 0 mm 5 mps 734 mmHg 64%
14:00 +15°C° 0 mm 4 mps 733 mmHg 63%
15:00 +15°C° 0 mm 4 mps 733 mmHg 64%
16:00 +15°C° 0 mm 4 mps 733 mmHg 65%
17:00 +15°C° 0 mm 4 mps 733 mmHg 66%
18:00 +14°C° 0 mm 3 mps 733 mmHg 73%
19:00 +13°C° 0 mm 2 mps 733 mmHg 79%
20:00 +12°C° 0 mm 1 mps 733 mmHg 86%
21:00 +11°C° 0 mm 1 mps 733 mmHg 88%
22:00 +10°C° 0 mm 1 mps 733 mmHg 89%
23:00 +10°C° 0 mm 1 mps 733 mmHg 91%

Day after tomorrow, 20 May, Thursday

Time Temperature Precipitation Wind Pressure Humidity
00:00 +10°C° 0.1 mm 1 mps 733 mmHg 92%
01:00 +10°C° 0.1 mm 1 mps 733 mmHg 93%
02:00 +9°C° 0.1 mm 1 mps 733 mmHg 94%
03:00 +10°C° 0.6 mm 1 mps 733 mmHg 94%
04:00 +10°C° 0.6 mm 1 mps 733 mmHg 95%
05:00 +9°C° 0.6 mm 2 mps 733 mmHg 96%
06:00 +9°C° 1.1 mm 2 mps 733 mmHg 95%
07:00 +9°C° 1.1 mm 2 mps 733 mmHg 95%
08:00 +9°C° 1.1 mm 2 mps 733 mmHg 95%
09:00 +10°C° 1 mm 2 mps 733 mmHg 94%
10:00 +10°C° 1 mm 2 mps 733 mmHg 94%
11:00 +10°C° 1 mm 2 mps 733 mmHg 94%
12:00 +10°C° 1.4 mm 2 mps 733 mmHg 94%
13:00 +11°C° 1.4 mm 3 mps 733 mmHg 93%
14:00 +11°C° 1.4 mm 3 mps 733 mmHg 93%
15:00 +10°C° 3.3 mm 3 mps 733 mmHg 93%
16:00 +10°C° 3.3 mm 4 mps 734 mmHg 93%
17:00 +10°C° 3.3 mm 4 mps 734 mmHg 93%
18:00 +10°C° 1.1 mm 4 mps 734 mmHg 92%
19:00 +10°C° 1.1 mm 3 mps 734 mmHg 90%
20:00 +10°C° 1.1 mm 3 mps 735 mmHg 89%
21:00 +10°C° 0.3 mm 3 mps 735 mmHg 90%
22:00 +9°C° 0.3 mm 3 mps 735 mmHg 91%
23:00 +9°C° 0.3 mm 3 mps 736 mmHg 92%

21 May, Friday

Time Temperature Precipitation Wind Pressure Humidity
00:00 +8°C° 0.2 mm 3 mps 736 mmHg 93%
01:00 +8°C° 0.2 mm 3 mps 736 mmHg 94%
02:00 +7°C° 0.2 mm 3 mps 736 mmHg 95%
03:00 +7°C° 0.1 mm 3 mps 737 mmHg 95%
04:00 +7°C° 0.1 mm 3 mps 737 mmHg 96%
05:00 +7°C° 0.1 mm 3 mps 738 mmHg 96%
06:00 +6°C° 0 mm 4 mps 738 mmHg 93%
07:00 +7°C° 0 mm 4 mps 738 mmHg 90%
08:00 +8°C° 0 mm 4 mps 739 mmHg 88%
09:00 +8°C° 0 mm 4 mps 739 mmHg 84%
10:00 +8°C° 0 mm 4 mps 740 mmHg 81%
11:00 +10°C° 0 mm 3 mps 740 mmHg 78%
12:00 +11°C° 0.1 mm 3 mps 740 mmHg 75%
13:00 +12°C° 0.1 mm 3 mps 739 mmHg 71%
14:00 +13°C° 0.1 mm 3 mps 739 mmHg 67%
15:00 +13°C° 0.1 mm 3 mps 739 mmHg 67%
16:00 +13°C° 0.1 mm 3 mps 739 mmHg 67%
17:00 +13°C° 0.1 mm 3 mps 739 mmHg 66%
18:00 +13°C° 0 mm 2 mps 739 mmHg 71%
19:00 +11°C° 0 mm 1 mps 739 mmHg 77%
20:00 +10°C° 0 mm 1 mps 739 mmHg 82%
21:00 +9°C° 0 mm 1 mps 739 mmHg 83%
22:00 +8°C° 0 mm 1 mps 739 mmHg 85%
23:00 +7°C° 0 mm 1 mps 739 mmHg 87%

22 May, Saturday

Time Temperature Precipitation Wind Pressure Humidity
00:00 +6°C° 0 mm 2 mps 738 mmHg 88%
01:00 +6°C° 0 mm 2 mps 738 mmHg 88%
02:00 +5°C° 0 mm 2 mps 738 mmHg 88%
03:00 +5°C° 0 mm 2 mps 738 mmHg 88%
04:00 +5°C° 0 mm 2 mps 738 mmHg 87%
05:00 +5°C° 0 mm 2 mps 737 mmHg 86%
06:00 +7°C° 0 mm 2 mps 737 mmHg 80%
07:00 +10°C° 0 mm 2 mps 737 mmHg 74%
08:00 +13°C° 0 mm 2 mps 737 mmHg 68%
09:00 +14°C° 0 mm 3 mps 737 mmHg 63%
10:00 +16°C° 0 mm 3 mps 737 mmHg 57%
11:00 +18°C° 0 mm 3 mps 737 mmHg 52%
12:00 +19°C° 0 mm 3 mps 736 mmHg 51%
13:00 +19°C° 0 mm 3 mps 736 mmHg 49%
14:00 +20°C° 0 mm 3 mps 736 mmHg 48%
15:00 +20°C° 0 mm 3 mps 736 mmHg 53%
16:00 +19°C° 0 mm 3 mps 735 mmHg 58%
17:00 +19°C° 0 mm 3 mps 735 mmHg 63%
18:00 +17°C° 0 mm 3 mps 735 mmHg 69%
19:00 +14°C° 0 mm 3 mps 735 mmHg 76%
20:00 +13°C° 0 mm 2 mps 735 mmHg 82%
21:00 +12°C° 0 mm 2 mps 735 mmHg 84%
22:00 +12°C° 0 mm 2 mps 735 mmHg 85%
23:00 +10°C° 0 mm 2 mps 735 mmHg 86%

23 May, Sunday

Time Temperature Precipitation Wind Pressure Humidity
00:00 +10°C° 0 mm 2 mps 735 mmHg 85%
01:00 +10°C° 0 mm 2 mps 735 mmHg 84%
02:00 +10°C° 0 mm 2 mps 735 mmHg 82%
03:00 +10°C° 0 mm 2 mps 735 mmHg 82%
04:00 +10°C° 0 mm 2 mps 734 mmHg 81%
05:00 +10°C° 0 mm 2 mps 734 mmHg 81%
06:00 +12°C° 0 mm 2 mps 734 mmHg 80%
07:00 +12°C° 0 mm 3 mps 735 mmHg 78%
08:00 +13°C° 0 mm 3 mps 735 mmHg 77%
09:00 +14°C° 0.1 mm 3 mps 735 mmHg 77%
10:00 +14°C° 0.1 mm 3 mps 735 mmHg 77%
11:00 +14°C° 0.1 mm 3 mps 736 mmHg 76%
12:00 +16°C° 0.2 mm 3 mps 736 mmHg 75%
13:00 +17°C° 0.2 mm 3 mps 736 mmHg 73%
14:00 +17°C° 0.2 mm 3 mps 736 mmHg 72%
15:00 +17°C° 0.2 mm 2 mps 735 mmHg 71%
16:00 +18°C° 0.2 mm 2 mps 735 mmHg 71%
17:00 +18°C° 0.2 mm 2 mps 735 mmHg 70%
18:00 +16°C° 0.1 mm 2 mps 735 mmHg 76%
19:00 +15°C° 0.1 mm 2 mps 735 mmHg 82%
20:00 +14°C° 0.1 mm 1 mps 735 mmHg 88%
21:00 +13°C° 0 mm 1 mps 736 mmHg 89%
22:00 +12°C° 0 mm 1 mps 736 mmHg 90%
23:00 +12°C° 0 mm 1 mps 736 mmHg 92%
Show more